Location: Gleizolles
(44.4833°N, 6.7667°E)
Time: 02:03:19
(UTC+00:00)

Tiangong - Visible Passes

Search period start: 22 May 2024 00:00
Search period end: 01 June 2024 00:00
Orbit: 371 x 375 km, 41.5° (Epoch: 21 May)

Date Brightness Start Highest point End Pass type
(mag) Time Alt. Az. Time Alt. Az. Time Alt. Az.
23 May -0.5 03:00:17 12° SSW 03:02:24 21° SSE 03:04:49 10° ESE visible
24 May 0.2 01:59:30 13° SE 01:59:30 13° SE 02:00:43 10° ESE visible
25 May -1.0 02:30:32 22° SSW 02:31:36 27° SSE 02:34:17 10° ESE visible
26 May 0.3 01:29:30 14° ESE 01:29:30 14° ESE 01:30:15 10° ESE visible
26 May -1.7 03:01:26 12° WSW 03:04:09 43° S 03:07:06 10° E visible
27 May -1.4 02:00:18 34° S 02:00:22 34° SSE 02:03:12 10° E visible
28 May 0.7 00:59:05 10° ESE 00:59:05 10° ESE 00:59:06 10° ESE visible
28 May -1.9 02:31:00 21° WSW 02:32:43 47° S 02:35:43 10° ESE visible
29 May -0.9 01:29:44 29° SE 01:29:44 29° SE 01:31:37 10° E visible
29 May -1.8 03:02:02 10° W 03:04:59 43° S 03:07:57 10° ESE visible
30 May -2.0 02:00:21 42° SW 02:00:51 47° S 02:03:50 10° ESE visible
31 May 0.4 00:59:06 13° ESE 00:59:06 13° ESE 00:59:34 10° E visible
31 May -1.6 02:31:00 18° WSW 02:32:52 37° SSW 02:35:45 10° ESE visible
